Weather in Bayahibe

Dominican Republic     18°22′05″N   68°50′23″W
temp.,
°C
wind,
m/s
gust,
m/s
humid.,
%
clouds,
%
prec.,
mm/h
press.,
hPa
HPBL,
m
9 march, tue
tue923:00+24ne59800 0.0 1019705
02:00+24ne48821 0.0 1018614
05:00+24ene48861 0.2 1017495
08:00+25ene58791 0.2 1019803
11:00+28e68604 0.0 1020944
14:00+28e686112 0.0 10171107
17:00+27ene58648 0.0 1016961
20:00+25ne610765 0.0 1017913
10 march, wed
wed1023:00+24ene610800 0.1 1018783
02:00+24ne59820 0.3 1017770
05:00+23ne48827 0.3 1016456
08:00+25e58748 0.4 1018862
11:00+28e57650 0.1 10191126
14:00+28ese56570 0.1 1016809
17:00+27e466432 0.0 1015685
20:00+24ne598024 1.5 1016446
11 march, thu
thu1123:00+24ne5108150 0.8 1017536
02:00+24ene7117471 1.3 1016829
05:00+24ne597664 0.3 1016826
08:00+24ne587453 0.3 1017817
11:00+27ene576376 0.0 10181320
14:00+28e566042 1.0 10161156
17:00+27e45610 0.3 1014911
20:00+24ne47766 0.3 1015509
12 march, fri
fri1223:00+24ne48800 0.0 1017580
02:00+23ne488018 0.0 1016539
05:00+23ne478325 0.1 1015451
08:00+24ne367716 0.2 1017507
11:00+27ene34611 0.1 10181263
14:00+27ene23601 1.9 10161043
17:00+26ne34676 2.2 10151105
20:00+23nne577816 2.3 1016467
13 march, sat
sat1323:00+23nne47820 0.0 1017434
02:00+22nne35840 0.0 1016329
05:00+22nne33850 0.0 1015179
08:00+23nne33790 0.0 1016188
11:00+27n23592 0.0 1017988
14:00+26e336724 1.1 1015924
17:00+26ne457146 1.1 1014881
20:00+24nne467925 1.2 1016483